Regional Weather Roundup
Issued by NWS

Home | Current Version | Previous Version | Text Only | Print | Product List | Glossary On
Versions: 1 2 3 4 5 6 7 8 9 10 11 12 13 14 15 16 17 18 19 20 21 22 23 24 25 26 27 28 29 30 31 32 33 34 35 36 37 38 39 40 41 42 43 44 45 46 47 48 49 50
000
ASUS44 KBMX 041310
RWRAL

ALABAMA REGIONAL WEATHER ROUNDUP
NATIONAL WEATHER SERVICE BIRMINGHAM AL
800 AM CDT FRI SEP 04 2015

NOTE: "FAIR" INDICATES FEW OR NO CLOUDS BELOW 12,000 FEET
WITH NO SIGNIFICANT WEATHER AND/OR OBSTRUCTIONS TO VISIBILITY.

THE REMARK "TC" DENOTES TEMPERATURE IN DEGREES CELSIUS.

ALZ001>011-014-016>018-020-041400-
NORTH ALABAMA

CITY           SKY/WX    TMP DP  RH WIND       PRES   REMARKS
MUSCLE SHOALS  SUNNY     74  70  87 CALM      30.04R FOG
HUNTSVILLE     MOSUNNY   75  71  87 SE3       30.04R
DECATUR        SUNNY     73  72  96 CALM      30.04R
HALEYVILLE     FAIR      73  73 100 CALM      30.08R
GADSDEN        MOSUNNY   70  64  83 CALM      30.03R
$$

ALZ012-013-022-023-030>036-040>044-041400-
WEST CENTRAL ALABAMA

CITY           SKY/WX    TMP DP  RH WIND       PRES   REMARKS
TUSCALOOSA     SUNNY     74  71  91 CALM      30.02R FOG
$$

ALZ015-024>027-033>036-040>044-041400-
CENTRAL ALABAMA

CITY           SKY/WX    TMP DP  RH WIND       PRES   REMARKS
BIRMINGHAM     SUNNY     76  72  87 CALM      30.06R
MONTGOMERY     SUNNY     76  71  85 CALM      30.02R
SHELBY CO ARPT SUNNY     75  71  87 W3        30.03S
MAXWELL AFB    SUNNY     75  72  89 VRB1      30.01R
GREENVILLE     FAIR      77  72  84 NW3       30.01S
$$

ALZ019-021-028-029-037-038-045>048-041400-
EAST CENTRAL ALABAMA

CITY           SKY/WX    TMP DP  RH WIND       PRES   REMARKS
ANNISTON       SUNNY     71  68  90 CALM      30.04R
ALEXANDER CITY SUNNY     74  71  88 CALM      30.03S
AUBURN         NOT AVBL
$$

ALZ051>064-041400-
SOUTHWEST ALABAMA

CITY           SKY/WX    TMP DP  RH WIND       PRES   REMARKS
MOBILE         MOSUNNY   77  75  93 N6        30.02R
BROOKLEY FIELD MOSUNNY   79  75  87 N5        30.02R
EVERGREEN      PTSUNNY   74  72  93 CALM      30.03R FOG
$$

ALZ049-050-065>069-041400-
SOUTHEAST ALABAMA

CITY           SKY/WX    TMP DP  RH WIND       PRES   REMARKS
DOTHAN         SUNNY     76  72  87 N5        30.04R
OZARK          SUNNY     75  72  91 NW3       30.00R
TROY           SUNNY     76  72  87 NW3       30.03R
EUFAULA        FAIR      77  71  82 N3        30.00R
$$


USA.gov is the U.S. government's official web portal to all federal, state and local government web resources and services.